This is the latest recevied weather packets stored in our database for station/object N8HON. If no packets are shown the sender has not sent any weather packets the latest 10 day(s).
| Time | Temp. | Humidity | Pressure | Rain* | Wind** | Luminosity | Snow |
|---|---|---|---|---|---|---|---|
| 1777574485 | 13.89° C | 45% | 1009.6 hPa | 0 mm | - | 248 W/m² | - |
| 1777574180 | 13.33° C | 50% | 1009.7 hPa | 0 mm | - | 269 W/m² | - |
| 1777573875 | 13.89° C | 48% | 1009.7 hPa | 0 mm | - | 256 W/m² | - |
| 1777573570 | 13.89° C | 52% | 1009.6 hPa | 0 mm | - | 285 W/m² | - |
| 1777573267 | 13.89° C | 48% | 1009.7 hPa | 0 mm | - | 347 W/m² | - |
| 1777572963 | 14.44° C | 49% | 1009.8 hPa | 0 mm | - | 360 W/m² | - |
| 1777572660 | 15° C | 43% | 1010.1 hPa | 0 mm | - | 356 W/m² | - |
| 1777572359 | 14.44° C | 51% | 1009.9 hPa | 0 mm | - | 798 W/m² | - |
| 1777572056 | 15° C | 51% | 1009.8 hPa | 0 mm | - | 783 W/m² | - |
| 1777571756 | 13.89° C | 50% | 1009.7 hPa | 0 mm | - | 752 W/m² | - |
| 1777571454 | 12.78° C | 48% | 1009.7 hPa | 0 mm | - | 224 W/m² | - |
| 1777571149 | 12.78° C | 51% | 1009.5 hPa | 0 mm | - | 247 W/m² | - |
| 1777570845 | 13.89° C | 46% | 1009.5 hPa | 0 mm | - | 253 W/m² | - |
| 1777570542 | 13.33° C | 46% | 1009.5 hPa | 0 mm | - | 643 W/m² | - |
| 1777570239 | 12.78° C | 52% | 1009.9 hPa | 0 mm | - | 156 W/m² | - |
| 1777569933 | 12.78° C | 51% | 1009.7 hPa | 0 mm | - | 158 W/m² | - |
| 1777569629 | 13.33° C | 50% | 1009.7 hPa | 0 mm | - | 215 W/m² | - |
| 1777569326 | 14.44° C | 48% | 1009.4 hPa | 0 mm | - | 385 W/m² | - |
| 1777569022 | 14.44° C | 46% | 1009.5 hPa | 0 mm | - | 740 W/m² | - |
| 1777568719 | 14.44° C | 54% | 1009.6 hPa | 0 mm | - | 755 W/m² | - |
| 1777568417 | 13.89° C | 50% | 1009.8 hPa | 0 mm | - | 772 W/m² | - |
| 1777568114 | 12.78° C | 51% | 1009.9 hPa | 0 mm | - | 837 W/m² | - |
| 1777567810 | 12.78° C | 51% | 1009.6 hPa | 0 mm | - | 210 W/m² | - |
| 1777567506 | 12.78° C | 51% | 1009.6 hPa | 0 mm | - | 245 W/m² | - |
| 1777567204 | 13.33° C | 52% | 1009.4 hPa | 0 mm | - | 221 W/m² | - |
* Rain latest hour (hover to see other rain measurements)
** Current wind speed in m/s (hover to see current wind gust speed)